sat.trackr.live / text

‹ back to catalog

STARLINK-35096

NORAD 65479 · 2025-195X

PAYLOAD ACTIVE UNKNOWN

§ Identity

Operator
Country
US
Launch date
2025-09-03
Launch site
AFETR
Launch vehicle
Mass (kg)
RCS (m²)

Purposes: comms

External: N2YO · Heavens-Above · Gunter

§ Orbital elements

Epoch: 2026-05-24T18:07:12.593568Z

Period
94.09 min
Inclination
53.1573°
Eccentricity
0.0001135
Mean motion
15.30462224 rev/d
Perigee alt
473.7 km
Apogee alt
475.2 km
Semi-major
6,852.6 km
B*
6.6586e-3
RAAN
264.5740°
Arg perigee
91.4173°
Mean anomaly
268.6958°
Rev number
4,162

§ Raw data

STARLINK-350961 65479U 25195X   26144.75500687  .00203995  00000+0  66586-2 0  99982 65479  53.1573 264.5740 0001135  91.4173 268.6958 15.30462224 41626

JSON: /api/v1/satellites/65479 · /tle

For live sub-satellite position, see the globe view (requires WebGL).

§ Visibility from observer

Set your observer location to see the next 7 days of passes ≥ 10°. The values pass through the URL so the page stays shareable.

No JS? Fill the form by hand. The geolocation button needs JavaScript.